Location: Home
(42.5358°N, 72.7383°W)
Time: 07:43:57
(UTC-04:00)

Explorer 11/Cluster Stage 4 - Pass Details

Date: 23 April 2025
Orbit: 463 x 1190 km, 28.8° (Epoch: 14 May)

Event Time Altitude Azimuth Distance (km) Brightness Sun altitude
Rises 06:01:55 0° 239° (WSW) 3,722 9.4 0.1°
Reaches altitude 10° 06:05:31 10° 223° (SW) 2,632 8.8 0.7°
Maximum altitude 06:09:54 20° 179° (S) 1,850 8.4 1.5°
Drops below altitude 10° 06:13:44 10° 134° (SE) 2,263 9.4 2.1°
Sets 06:16:33 0° 117° (ESE) 3,047 10.5 2.7°
